JAT610 SCEL-SCSE

Flight info

Callsign JAT610
Flight time 0h 48m
Altitude 30000
Route DONTI5B DONTI UQ802 KUGAP KUGAP5
Aircraft A320/M-SDE3FGHIRWY/LB1

Departure

Time 2026-04-20 03:22
Airport Comodoro Arturo Merino Benítez International Airport (SCEL)

Arrival

Time 2026-04-20 04:11
Airport La Florida Airport (SCSE)
Time Latitude Longitude Altitude Speed Heading
2026-04-20 02:27 -33.39606 -70.79696 1565 ft 0 kts 177°
2026-04-20 03:10 -33.39603 -70.79697 1564 ft 3 kts 177°
2026-04-20 03:10 -33.39577 -70.79698 1564 ft 4 kts 177°
2026-04-20 03:10 -33.39555 -70.79699 1564 ft 4 kts 173°
2026-04-20 03:10 -33.39531 -70.79708 1564 ft 4 kts 134°
2026-04-20 03:11 -33.39523 -70.79731 1564 ft 4 kts 86°
2026-04-20 03:11 -33.39525 -70.79760 1565 ft 2 kts 88°
2026-04-20 03:11 -33.39525 -70.79761 1565 ft 0 kts 88°
2026-04-20 03:13 -33.39525 -70.79760 1565 ft 1 kts 88°
2026-04-20 03:13 -33.39524 -70.79739 1565 ft 4 kts 86°
2026-04-20 03:13 -33.39521 -70.79689 1564 ft 8 kts 85°
2026-04-20 03:13 -33.39517 -70.79611 1564 ft 11 kts 86°
2026-04-20 03:14 -33.39513 -70.79517 1564 ft 12 kts 87°
2026-04-20 03:14 -33.39509 -70.79418 1564 ft 12 kts 87°
2026-04-20 03:14 -33.39506 -70.79312 1564 ft 13 kts 88°
2026-04-20 03:14 -33.39500 -70.79201 1564 ft 14 kts 86°
2026-04-20 03:15 -33.39496 -70.79085 1564 ft 14 kts 87°
2026-04-20 03:15 -33.39492 -70.78973 1564 ft 11 kts 88°
2026-04-20 03:15 -33.39474 -70.78890 1564 ft 10 kts 50°
2026-04-20 03:15 -33.39413 -70.78845 1564 ft 11 kts 29°
2026-04-20 03:16 -33.39347 -70.78802 1564 ft 11 kts 22°
2026-04-20 03:16 -33.39273 -70.78797 1564 ft 11 kts 357°
2026-04-20 03:16 -33.39196 -70.78801 1564 ft 11 kts 357°
2026-04-20 03:16 -33.39118 -70.78807 1564 ft 11 kts 356°
2026-04-20 03:17 -33.39038 -70.78811 1564 ft 12 kts 357°
2026-04-20 03:17 -33.38956 -70.78815 1564 ft 12 kts 357°
2026-04-20 03:17 -33.38871 -70.78820 1564 ft 12 kts 357°
2026-04-20 03:17 -33.38789 -70.78824 1564 ft 11 kts 358°
2026-04-20 03:18 -33.38712 -70.78828 1564 ft 11 kts 358°
2026-04-20 03:18 -33.38628 -70.78832 1564 ft 14 kts 357°
2026-04-20 03:18 -33.38517 -70.78838 1564 ft 17 kts 357°
2026-04-20 03:18 -33.38404 -70.78845 1564 ft 15 kts 357°
2026-04-20 03:19 -33.38297 -70.78850 1564 ft 15 kts 358°
2026-04-20 03:19 -33.38198 -70.78855 1564 ft 15 kts 358°
2026-04-20 03:19 -33.38088 -70.78861 1564 ft 17 kts 358°
2026-04-20 03:19 -33.37968 -70.78867 1565 ft 18 kts 358°
2026-04-20 03:20 -33.37852 -70.78873 1565 ft 16 kts 358°
2026-04-20 03:20 -33.37756 -70.78878 1564 ft 12 kts 357°
2026-04-20 03:20 -33.37682 -70.78881 1564 ft 11 kts 358°
2026-04-20 03:20 -33.37600 -70.78880 1564 ft 13 kts 13°
2026-04-20 03:21 -33.37550 -70.78815 1564 ft 9 kts 74°
2026-04-20 03:21 -33.37545 -70.78728 1564 ft 12 kts 91°
2026-04-20 03:21 -33.37585 -70.78672 1564 ft 11 kts 174°
2026-04-20 03:21 -33.37760 -70.78662 1565 ft 55 kts 177°
2026-04-20 03:22 -33.38359 -70.78630 1564 ft 113 kts 177°
2026-04-20 03:22 -33.39280 -70.78580 1566 ft 154 kts 177°
2026-04-20 03:22 -33.40439 -70.78510 1879 ft 169 kts 175°
2026-04-20 03:22 -33.41608 -70.78440 2526 ft 168 kts 176°
2026-04-20 03:23 -33.42775 -70.78371 3199 ft 167 kts 178°
2026-04-20 03:23 -33.43936 -70.78304 3834 ft 167 kts 178°
2026-04-20 03:23 -33.45101 -70.78377 4360 ft 174 kts 200°
2026-04-20 03:23 -33.46103 -70.79289 4607 ft 196 kts 237°
2026-04-20 03:24 -33.46488 -70.80928 4841 ft 218 kts 266°
2026-04-20 03:24 -33.46566 -70.82845 5115 ft 243 kts 268°
2026-04-20 03:24 -33.46650 -70.84968 5527 ft 265 kts 268°
2026-04-20 03:24 -33.46739 -70.87210 6279 ft 273 kts 269°
2026-04-20 03:25 -33.46835 -70.89491 7131 ft 275 kts 269°
2026-04-20 03:25 -33.46935 -70.91780 8016 ft 277 kts 270°
2026-04-20 03:25 -33.47039 -70.94086 8887 ft 278 kts 271°
2026-04-20 03:25 -33.46930 -70.96375 9691 ft 274 kts 289°
2026-04-20 03:26 -33.46047 -70.98348 10404 ft 269 kts 315°
2026-04-20 03:26 -33.44576 -70.99633 11188 ft 267 kts 336°
2026-04-20 03:26 -33.42781 -71.00411 11498 ft 286 kts 341°
2026-04-20 03:26 -33.40829 -71.01179 11822 ft 301 kts 341°
2026-04-20 03:27 -33.38818 -71.01948 12436 ft 306 kts 341°
2026-04-20 03:27 -33.36783 -71.02726 13149 ft 308 kts 341°
2026-04-20 03:27 -33.34731 -71.03516 13878 ft 310 kts 341°
2026-04-20 03:27 -33.32682 -71.04311 14521 ft 312 kts 340°
2026-04-20 03:28 -33.30610 -71.05119 15150 ft 314 kts 340°
2026-04-20 03:28 -33.28525 -71.05934 15774 ft 317 kts 339°
2026-04-20 03:28 -33.24306 -71.07581 16925 ft 322 kts 339°
2026-04-20 03:29 -33.22166 -71.08421 17454 ft 325 kts 338°
2026-04-20 03:29 -33.20007 -71.09268 18050 ft 328 kts 338°
2026-04-20 03:29 -33.17827 -71.10120 18612 ft 331 kts 338°
2026-04-20 03:29 -33.15626 -71.10979 19135 ft 333 kts 338°
2026-04-20 03:30 -33.13417 -71.11840 19627 ft 336 kts 337°
2026-04-20 03:30 -33.11215 -71.12694 20126 ft 338 kts 337°
2026-04-20 03:30 -33.08945 -71.13577 20664 ft 340 kts 337°
2026-04-20 03:30 -33.06716 -71.14445 21104 ft 343 kts 337°
2026-04-20 03:31 -33.04442 -71.15329 21582 ft 345 kts 337°
2026-04-20 03:31 -33.02152 -71.16217 22112 ft 347 kts 336°
2026-04-20 03:31 -32.99848 -71.17112 22591 ft 349 kts 336°
2026-04-20 03:31 -32.97532 -71.18012 23084 ft 351 kts 336°
2026-04-20 03:32 -32.95161 -71.18798 23560 ft 359 kts 343°
2026-04-20 03:32 -32.92639 -71.19052 23976 ft 368 kts 351°
2026-04-20 03:32 -32.90072 -71.19098 24403 ft 370 kts 351°
2026-04-20 03:32 -32.87491 -71.19149 24823 ft 371 kts 351°
2026-04-20 03:33 -32.84937 -71.19201 25237 ft 372 kts 351°
2026-04-20 03:33 -32.82341 -71.19254 25641 ft 374 kts 351°
2026-04-20 03:33 -32.79739 -71.19307 26016 ft 376 kts 351°
2026-04-20 03:33 -32.77124 -71.19358 26423 ft 377 kts 350°
2026-04-20 03:34 -32.74492 -71.19407 26776 ft 379 kts 351°
2026-04-20 03:34 -32.71849 -71.19452 27145 ft 381 kts 350°
2026-04-20 03:34 -32.69192 -71.19496 27518 ft 383 kts 350°
2026-04-20 03:34 -32.66521 -71.19542 27901 ft 384 kts 350°
2026-04-20 03:35 -32.63839 -71.19588 28286 ft 386 kts 350°
2026-04-20 03:35 -32.61154 -71.19634 28648 ft 388 kts 350°
2026-04-20 03:35 -32.58447 -71.19681 29018 ft 390 kts 350°
2026-04-20 03:35 -32.55726 -71.19731 29405 ft 392 kts 349°
2026-04-20 03:36 -32.52990 -71.19781 29803 ft 393 kts 349°
2026-04-20 03:36 -32.50285 -71.19835 30058 ft 394 kts 349°
2026-04-20 03:36 -32.47584 -71.19879 30097 ft 381 kts 349°
2026-04-20 03:36 -32.44957 -71.19914 30097 ft 375 kts 349°
2026-04-20 03:37 -32.39774 -71.20005 30097 ft 371 kts 349°
2026-04-20 03:37 -32.34619 -71.20113 30097 ft 370 kts 349°
2026-04-20 03:38 -32.29461 -71.20217 30099 ft 370 kts 349°
2026-04-20 03:38 -32.24303 -71.20306 30059 ft 371 kts 349°
2026-04-20 03:39 -32.19141 -71.20403 30066 ft 372 kts 349°
2026-04-20 03:39 -32.13996 -71.20497 30073 ft 372 kts 349°
2026-04-20 03:40 -32.08806 -71.20592 30083 ft 373 kts 349°
2026-04-20 03:40 -32.03620 -71.20688 30089 ft 373 kts 349°
2026-04-20 03:41 -31.98438 -71.20779 30062 ft 372 kts 349°
2026-04-20 03:41 -31.93253 -71.20866 30066 ft 373 kts 349°
2026-04-20 03:42 -31.88927 -71.20946 30071 ft 374 kts 349°
2026-04-20 03:42 -31.83720 -71.21041 30076 ft 375 kts 349°
2026-04-20 03:43 -31.78514 -71.21154 30079 ft 372 kts 346°
2026-04-20 03:43 -31.73488 -71.22114 30057 ft 365 kts 341°
2026-04-20 03:44 -31.68483 -71.23189 30060 ft 365 kts 341°
2026-04-20 03:44 -31.63501 -71.24255 30066 ft 366 kts 341°
2026-04-20 03:45 -31.58481 -71.25331 30087 ft 367 kts 341°
2026-04-20 03:45 -31.53452 -71.26398 30090 ft 367 kts 341°
2026-04-20 03:46 -31.48457 -71.27452 29772 ft 357 kts 341°
2026-04-20 03:46 -31.46042 -71.27956 29479 ft 349 kts 341°
2026-04-20 03:46 -31.43668 -71.28457 29203 ft 344 kts 341°
2026-04-20 03:47 -31.41325 -71.28958 28929 ft 342 kts 341°
2026-04-20 03:47 -31.38988 -71.29461 28664 ft 340 kts 341°
2026-04-20 03:47 -31.36665 -71.29958 28394 ft 339 kts 341°
2026-04-20 03:47 -31.34347 -71.30448 28134 ft 338 kts 341°
2026-04-20 03:48 -31.32053 -71.30929 27917 ft 332 kts 342°
2026-04-20 03:48 -31.29823 -71.31394 27599 ft 327 kts 341°
2026-04-20 03:48 -31.27599 -71.31859 27266 ft 322 kts 341°
2026-04-20 03:48 -31.25414 -71.32318 26939 ft 317 kts 341°
2026-04-20 03:49 -31.23254 -71.32776 26612 ft 313 kts 341°
2026-04-20 03:49 -31.21127 -71.33230 26271 ft 309 kts 342°
2026-04-20 03:49 -31.19021 -71.33680 25954 ft 306 kts 342°
2026-04-20 03:49 -31.16941 -71.34124 25630 ft 303 kts 342°
2026-04-20 03:50 -31.14872 -71.34562 25298 ft 301 kts 342°
2026-04-20 03:50 -31.12813 -71.34998 24964 ft 300 kts 342°
2026-04-20 03:50 -31.10762 -71.35430 24627 ft 299 kts 342°
2026-04-20 03:50 -31.08715 -71.35861 24282 ft 298 kts 342°
2026-04-20 03:51 -31.06677 -71.36289 23946 ft 297 kts 342°
2026-04-20 03:51 -31.04646 -71.36717 23598 ft 296 kts 343°
2026-04-20 03:51 -31.02625 -71.37140 23217 ft 295 kts 343°
2026-04-20 03:51 -31.00612 -71.37558 22868 ft 293 kts 343°
2026-04-20 03:52 -30.98615 -71.37977 22530 ft 291 kts 343°
2026-04-20 03:52 -30.96626 -71.38392 22157 ft 290 kts 343°
2026-04-20 03:52 -30.94643 -71.38808 21846 ft 290 kts 343°
2026-04-20 03:52 -30.92666 -71.39225 21508 ft 288 kts 343°
2026-04-20 03:53 -30.90723 -71.39636 21170 ft 287 kts 343°
2026-04-20 03:53 -30.88761 -71.40049 20825 ft 286 kts 344°
2026-04-20 03:53 -30.86802 -71.40463 20495 ft 286 kts 344°
2026-04-20 03:53 -30.84846 -71.40875 20156 ft 286 kts 344°
2026-04-20 03:54 -30.82891 -71.41287 19810 ft 286 kts 345°
2026-04-20 03:54 -30.80937 -71.41697 19483 ft 285 kts 345°
2026-04-20 03:54 -30.78984 -71.42105 19143 ft 285 kts 345°
2026-04-20 03:54 -30.77032 -71.42511 18797 ft 284 kts 345°
2026-04-20 03:55 -30.75088 -71.42913 18464 ft 284 kts 345°
2026-04-20 03:55 -30.73143 -71.43316 18095 ft 284 kts 345°
2026-04-20 03:55 -30.71205 -71.43720 17726 ft 282 kts 346°
2026-04-20 03:55 -30.69275 -71.44123 17394 ft 281 kts 346°
2026-04-20 03:56 -30.67360 -71.44523 17076 ft 279 kts 346°
2026-04-20 03:56 -30.65448 -71.44922 16742 ft 278 kts 346°
2026-04-20 03:56 -30.63568 -71.45315 16416 ft 278 kts 346°
2026-04-20 03:56 -30.61646 -71.45716 16081 ft 277 kts 347°
2026-04-20 03:57 -30.59781 -71.46102 15759 ft 276 kts 347°
2026-04-20 03:57 -30.57893 -71.46492 15435 ft 275 kts 347°
2026-04-20 03:57 -30.56013 -71.46883 15103 ft 274 kts 347°
2026-04-20 03:57 -30.54142 -71.47277 14780 ft 273 kts 347°
2026-04-20 03:58 -30.52248 -71.47501 14450 ft 275 kts 358°
2026-04-20 03:58 -30.50334 -71.47305 14082 ft 278 kts
2026-04-20 03:58 -30.48408 -71.47065 13692 ft 279 kts
2026-04-20 03:58 -30.46480 -71.46826 13307 ft 279 kts
2026-04-20 03:59 -30.44554 -71.46588 12926 ft 278 kts
2026-04-20 03:59 -30.42627 -71.46352 12557 ft 278 kts
2026-04-20 03:59 -30.40706 -71.46116 12191 ft 277 kts
2026-04-20 03:59 -30.38788 -71.45880 11828 ft 277 kts
2026-04-20 04:00 -30.36871 -71.45644 11463 ft 277 kts
2026-04-20 04:00 -30.34970 -71.45413 11057 ft 279 kts
2026-04-20 04:00 -30.33039 -71.45177 10685 ft 279 kts
2026-04-20 04:00 -30.31133 -71.44943 10494 ft 273 kts
2026-04-20 04:01 -30.29248 -71.44715 10167 ft 272 kts
2026-04-20 04:01 -30.27369 -71.44487 9812 ft 272 kts
2026-04-20 04:01 -30.25491 -71.44256 9436 ft 271 kts
2026-04-20 04:01 -30.23620 -71.44027 9058 ft 271 kts
2026-04-20 04:02 -30.21749 -71.43799 8525 ft 268 kts
2026-04-20 04:02 -30.19911 -71.43576 8130 ft 262 kts
2026-04-20 04:02 -30.18124 -71.43357 7781 ft 255 kts
2026-04-20 04:02 -30.16377 -71.43143 7447 ft 251 kts
2026-04-20 04:03 -30.14638 -71.42932 7125 ft 252 kts
2026-04-20 04:03 -30.12885 -71.42720 6794 ft 254 kts
2026-04-20 04:03 -30.11127 -71.42508 6457 ft 255 kts
2026-04-20 04:03 -30.09356 -71.42292 6110 ft 256 kts
2026-04-20 04:04 -30.07582 -71.42076 5770 ft 257 kts
2026-04-20 04:04 -30.05803 -71.41859 5435 ft 258 kts
2026-04-20 04:04 -30.04061 -71.41647 5330 ft 243 kts
2026-04-20 04:04 -30.02456 -71.41452 5243 ft 229 kts
2026-04-20 04:05 -30.00889 -71.41262 5145 ft 225 kts
2026-04-20 04:05 -29.99346 -71.41072 5046 ft 219 kts
2026-04-20 04:05 -29.97899 -71.40701 4951 ft 209 kts 17°
2026-04-20 04:05 -29.96523 -71.40197 4864 ft 206 kts 17°
2026-04-20 04:06 -29.95189 -71.39718 4791 ft 194 kts 17°
2026-04-20 04:06 -29.93940 -71.39273 4679 ft 184 kts 17°
2026-04-20 04:06 -29.92719 -71.38837 4534 ft 184 kts 17°
2026-04-20 04:06 -29.91502 -71.38401 4255 ft 183 kts 17°
2026-04-20 04:07 -29.90291 -71.37965 3993 ft 181 kts 17°
2026-04-20 04:07 -29.89152 -71.37362 3745 ft 181 kts 32°
2026-04-20 04:07 -29.88181 -71.36444 3491 ft 181 kts 47°
2026-04-20 04:07 -29.87443 -71.35274 3241 ft 181 kts 62°
2026-04-20 04:08 -29.86984 -71.33936 2979 ft 180 kts 76°
2026-04-20 04:08 -29.86827 -71.32512 2735 ft 179 kts 90°
2026-04-20 04:08 -29.86978 -71.31094 2490 ft 178 kts 104°
2026-04-20 04:08 -29.87413 -71.29776 2236 ft 175 kts 117°
2026-04-20 04:09 -29.87941 -71.28557 2004 ft 164 kts 116°
2026-04-20 04:09 -29.88427 -71.27432 1792 ft 152 kts 116°
2026-04-20 04:09 -29.88887 -71.26367 1565 ft 146 kts 116°
2026-04-20 04:09 -29.89335 -71.25330 1365 ft 143 kts 116°
2026-04-20 04:10 -29.89775 -71.24307 1171 ft 141 kts 116°
2026-04-20 04:10 -29.90203 -71.23310 993 ft 140 kts 116°
2026-04-20 04:10 -29.90633 -71.22306 796 ft 139 kts 116°
2026-04-20 04:10 -29.91060 -71.21310 590 ft 138 kts 116°
2026-04-20 04:11 -29.91478 -71.20338 473 ft 123 kts 117°
2026-04-20 04:11 -29.91725 -71.19764 474 ft 36 kts 116°
2026-04-20 04:11 -29.91797 -71.19597 472 ft 12 kts 120°
2026-04-20 04:11 -29.91820 -71.19554 478 ft 6 kts 68°
2026-04-20 04:12 -29.91796 -71.19581 479 ft 10 kts 290°
2026-04-20 04:12 -29.91758 -71.19684 478 ft 16 kts 296°
2026-04-20 04:12 -29.91703 -71.19814 477 ft 19 kts 296°
2026-04-20 04:12 -29.91639 -71.19961 476 ft 21 kts 296°
2026-04-20 04:13 -29.91570 -71.20123 473 ft 22 kts 295°
2026-04-20 04:13 -29.91531 -71.20216 476 ft 10 kts 294°
2026-04-20 04:13 -29.91557 -71.20278 476 ft 9 kts 207°
2026-04-20 04:13 -29.91587 -71.20295 478 ft 5 kts 206°
2026-04-20 04:14 -29.91606 -71.20334 478 ft 7 kts 271°
2026-04-20 04:14 -29.91589 -71.20378 479 ft 3 kts 297°
2026-04-20 04:14 -29.91577 -71.20409 479 ft 5 kts 284°
2026-04-20 04:14 -29.91599 -71.20431 479 ft 5 kts 208°
2026-04-20 04:15 -29.91616 -71.20441 479 ft 2 kts 207°
2026-04-20 04:15 -29.91621 -71.20444 480 ft 0 kts 207°